Flag for Australia Weather past 2 weeks in Melbourne, Victoria, Australia

Now
55 °F

Partly sunny.


Feels Like: 49 °F
Forecast: 56 / 63 °F
Wind: 29 mph from North

Location: Melbourne Airport

Current Time: Jul 29, 2014 at 1:42:39 PM

Latest Report: Jul 29, 2014 at 12:30 PM


Visibility: N/A

Pressure: 29.80 "Hg

Humidity: 72%

Dew point: 46 °F

Location of MelbourneLocation

Historic Weather in Melbourne — Graph

°F

Melbourne temperature yesterday

Maximum temperature yesterday: 61 °F (at 3:00 PM)
Minimum temperature yesterday: 46 °F (at 4:00 AM)
Average temperature yesterday: 52 °F

Past Weeks' High & Low Weather Summary

 TemperatureHumidityPressure
High61 °F (Jul 25, 3:30 PM)100% (Jul 19, 4:00 AM)30.42 "Hg (Jul 19, 4:00 AM)
Low37 °F (Jul 21, 10:00 PM)43% (Jul 17, 4:00 PM)29.71 "Hg (Jul 17, 1:00 AM)
Average49 °F79%30.10 "Hg
* Reported Jul 14 12:00 Noon — Jul 29 12:00 Noon, Melbourne, Weather by CustomWeather, © 2014

Note: Actual official high and low records may vary slightly from our data, if they occured in-between our weather recording intervals... More about our weather records

Advertising

Melbourne weather history for previous 24 hours

 ConditionsComfort  
Time TempWeatherWind HumidityBarometerVisibility
12:00 PM
Jul 29
59 °FBroken clouds.26 mph59%29.80 "HgN/A
11:30 AM57 °FBroken clouds.26 mph63%29.80 "HgN/A
11:00 AM59 °FBroken clouds.22 mph59%29.83 "HgN/A
10:53 AM59 °FPartly sunny.22 mph59%29.83 "HgN/A
10:30 AM57 °FPartly sunny.22 mph63%29.83 "HgN/A
10:00 AM54 °FBroken clouds.30 mph67%29.77 "HgN/A
9:30 AM52 °FPartly sunny.26 mph72%29.83 "HgN/A
9:00 AM54 °FPartly sunny.21 mph67%29.83 "HgN/A
8:30 AM52 °FScattered clouds.23 mph72%29.83 "HgN/A
8:00 AM52 °FPassing clouds.24 mph72%29.83 "HgN/A
7:00 AM52 °FPartly sunny.20 mph72%29.83 "HgN/A
6:30 AM52 °FPartly sunny.18 mph72%29.83 "HgN/A
6:00 AM52 °FPassing clouds.16 mph72%29.80 "HgN/A
5:30 AM52 °FPartly cloudy.18 mph72%29.80 "HgN/A
5:00 AM52 °FPassing clouds.17 mph72%29.80 "HgN/A
4:30 AM54 °FPassing clouds.17 mph67%29.83 "HgN/A
4:00 AM54 °FPassing clouds.20 mph67%29.83 "HgN/A
3:30 AM54 °FPartly cloudy.17 mph72%29.80 "HgN/A
3:00 AM54 °FPartly cloudy.21 mph72%29.80 "HgN/A
2:30 AM55 °FPartly cloudy.18 mph63%29.83 "HgN/A
2:00 AM54 °FPartly cloudy.18 mph72%29.86 "HgN/A
1:30 AM52 °FPartly cloudy.15 mph77%29.86 "HgN/A
1:00 AM50 °FPassing clouds.17 mph76%29.86 "HgN/A
12:30 AM48 °FPassing clouds.18 mph82%29.89 "HgN/A
12:00 AM48 °FPassing clouds.18 mph82%29.89 "HgN/A
11:30 PM
Jul 28
50 °FPassing clouds.18 mph82%29.89 "HgN/A
11:00 PM52 °FPassing clouds.18 mph77%29.89 "HgN/A
10:30 PM52 °FPassing clouds.18 mph77%29.89 "HgN/A
10:00 PM52 °FPassing clouds.20 mph77%29.89 "HgN/A
9:30 PM52 °FClear.20 mph77%29.92 "Hg10 mi
9:00 PM52 °FClear.21 mph77%29.92 "Hg10 mi
8:30 PM54 °FClear.18 mph72%29.92 "Hg10 mi
8:00 PM52 °FClear.20 mph77%29.89 "Hg10 mi
7:30 PM54 °FPassing clouds.23 mph72%29.89 "HgN/A
7:00 PM54 °FPassing clouds.22 mph77%29.89 "HgN/A
6:30 PM54 °FPassing clouds.22 mph77%29.89 "HgN/A
6:00 PM54 °FPassing clouds.20 mph72%29.89 "HgN/A
5:30 PM55 °FPassing clouds.18 mph63%29.89 "HgN/A
5:00 PM59 °FPassing clouds.16 mph55%29.89 "HgN/A
4:30 PM59 °FPassing clouds.16 mph55%29.89 "HgN/A
4:00 PM61 °FPassing clouds.18 mph52%29.89 "HgN/A
3:30 PM61 °FPassing clouds.21 mph52%29.89 "HgN/A
3:00 PM61 °FPassing clouds.20 mph52%29.89 "HgN/A
2:30 PM59 °FPassing clouds.20 mph59%29.89 "HgN/A
2:00 PM59 °FPassing clouds.22 mph59%29.92 "HgN/A
1:30 PM59 °FPassing clouds.22 mph55%29.92 "HgN/A
1:00 PM57 °FSunny.23 mph59%29.92 "Hg10 mi
Weather by CustomWeather, © 2014

See weather overviewHow to use our weather pages